Location: Prague
(50.0830°N, 14.4670°E)
Time: 13:27:03
(UTC+02:00)

Tiangong - Visible Passes

Search period start: 28 September 2021 00:00
Search period end: 08 October 2021 00:00
Orbit: 382 x 385 km, 41.5° (Epoch: 28 September)

Date Brightness Start Highest point End Pass type
(mag) Time Alt. Az. Time Alt. Az. Time Alt. Az.
28 Sep 3.8 05:39:35 10° S 05:40:23 11° SSE 05:41:11 10° SE visible
29 Sep 3.4 06:14:41 10° SSW 06:16:44 16° S 06:18:47 10° SE visible
30 Sep 3.5 05:16:35 13° S 05:17:01 14° SSE 05:18:43 10° SE visible
01 Oct 3.2 05:51:43 12° SW 05:53:24 17° S 05:55:35 10° SE visible
02 Oct 3.6 04:54:39 14° SSE 04:54:39 14° SSE 04:55:42 10° SE visible
02 Oct 3.3 06:27:46 10° SW 06:29:47 16° S 06:31:49 10° SSE visible
03 Oct 3.0 05:29:47 17° S 05:30:02 17° S 05:32:13 10° SE visible
04 Oct 3.4 06:04:56 11° SW 06:06:22 13° SSW 06:08:00 10° SSE visible
05 Oct 3.6 05:07:55 13° SSE 05:07:55 13° SSE 05:08:38 10° SSE visible
06 Oct 3.6 05:43:11 10° SSW 05:43:11 10° SSW 05:43:28 10° S visible
